Regional Weather Roundup
Issued by NWS

Home | Current Version | Previous Version | Graphics & Text | Print | Product List | Glossary On
Versions: 1 2 3 4 5 6 7 8 9 10 11 12 13 14 15 16 17 18 19 20 21 22 23 24 25 26 27 28 29 30 31 32 33 34 35 36 37 38 39 40 41 42 43 44 45 46 47 48 49 50
000
ASUS45 KPSR 010410
RWRAZ

ARIZONA REGIONAL HOURLY WEATHER ROUNDUP
NATIONAL WEATHER SERVICE PHOENIX AZ
900 PM MST SAT JAN 31 2015

NOTE: FAIR INDICATES FEW OR NO CLOUDS BELOW 12,000 FEET WITH NO
SIGNIFICANT WEATHER AND/OR OBSTRUCTIONS TO VISIBILITY.

AZZ001>003-036-010500-
NORTHWEST ARIZONA

CITY           SKY/WX    TMP DP  RH WIND       PRES   REMARKS
BULLHEAD CITY  CLEAR     63  43  48 N15       29.94R
KINGMAN        CLEAR     46  40  79 E9        30.00R
$$

AZZ004>008-015-016-018-010500-
NORTH CENTRAL ARIZONA

CITY           SKY/WX    TMP DP  RH WIND       PRES   REMARKS
GRAND CANYON   CLEAR     29  29 100 CALM      30.04R
PRESCOTT       MOCLDY    45  41  86 S7        29.98S
FLAGSTAFF      CLEAR     32  29  88 W5        30.01R WCI  27
PAYSON         CLEAR     41  39  93 CALM      30.00R
$$

AZZ009>014-017-010500-
NORTHEAST ARIZONA

CITY           SKY/WX    TMP DP  RH WIND       PRES   REMARKS
WINSLOW        MOCLDY    42  38  85 W7        29.98S
SAINT JOHNS    CLOUDY    43  39  86 W7        29.97R
WINDOW ROCK    MOCLDY    36  30  79 N9        29.98R WCI  29
SHOW LOW       MOCLDY    37  36  93 CALM      30.02R
$$

AZZ023-010500-
GREATER PHOENIX AREA

CITY           SKY/WX    TMP DP  RH WIND       PRES   REMARKS
PHOENIX        CLOUDY    56  53  90 E3        29.92R
BUCKEYE          N/A     54  54 100 CALM      29.93R
GLENDALE       PTCLDY    57  57 100 CALM      29.94R
LUKE AFB       CLEAR     55  53  96 CALM      29.92R
DEER VALLEY    CLEAR     53  52  96 CALM      29.92R
SCOTTSDALE     CLEAR     56  51  84 CALM      29.94R
MESA-GATEWAY   PTCLDY    54  52  94 CALM      29.94R
CHANDLER       MOCLDY    54  54 100 CALM      29.93R
$$

AZZ027-028-010500-
SOUTHWEST MARICOPA COUNTY AND PINAL COUNTY

CITY           SKY/WX    TMP DP  RH WIND       PRES   REMARKS
CASA GRANDE    MOCLDY    54  48  82 CALM      29.93S
GILA BEND      FAIR      54  54 100 CALM      29.92R FOG
$$

AZZ503-504-507>509-010500-
SOUTHEAST ARIZONA

CITY           SKY/WX    TMP DP  RH WIND       PRES   REMARKS
TUCSON         CLOUDY    52  50  93 VRB3      29.95R
DAVIS-MONTHAN  CLOUDY    51  51 100 E2        29.93R
NOGALES        PTCLDY    46  42  86 SE3       29.94R
SIERRA VISTA   CLOUDY    45  44  97 CALM      29.96R
DOUGLAS        MOCLDY    45  42  89 CALM      29.95R
SAFFORD        CLOUDY    50  48  93 W7        29.94R
$$

AZZ020-021-025-026-031-010500-
SOUTHWEST ARIZONA

CITY           SKY/WX    TMP DP  RH WIND       PRES   REMARKS
YUMA           PTCLDY    64  49  57 N3        29.92R
$$

CAZ031-033-041-043-047-048-061-010500-
SOUTHERN CALIFORNIA

CITY           SKY/WX    TMP DP  RH WIND       PRES   REMARKS
DOWNTOWN L.A.  CLEAR     60  54  80 CALM      29.95R
L.A. AIRPORT   CLEAR     60  56  86 SW5       29.95R
SAN DIEGO      MOCLDY    61  53  75 CALM      29.97R
BURBANK        CLEAR     60  51  72 SE3       29.95R
ONTARIO        PTCLDY    57  50  77 CALM      29.95R
RIVERSIDE      CLEAR     64  38  38 VRB3      29.95R
PALM SPRINGS   CLEAR     63  43  48 S6        29.97R
EL CENTRO NAS  PTCLDY    63  47  55 NW3       29.93R
IMPERIAL       CLOUDY    63  49  60 NW5       29.92R
BLYTHE         CLEAR     58  52  80 N6        29.92R
NEEDLES        CLEAR     62  42  47 N8        29.94R
$$

NVZ020-UTZ003-010500-
SOUTHERN NEVADA-UTAH

CITY           SKY/WX    TMP DP  RH WIND       PRES   REMARKS
LAS VEGAS      PTCLDY    56  40  55 S5        29.97R
SALT LAKE CITY CLEAR     36  29  75 NW3       30.12S
$$

NMZ009-TXZ055-010500-
NEW MEXICO-WEST TEXAS

CITY           SKY/WX    TMP DP  RH WIND       PRES   REMARKS
ALBUQUERQUE    PTCLDY    37  35  92 NW3       29.95R
EL PASO        MOCLDY    54  41  61 CALM      29.91R
$$


........................KEY........................
SKY/WX - SKY CONDITION/WEATHER
TMP    - TEMPERATURE IN FAHRENHEIT
DP     - DEW POINT IN FAHRENHEIT
RH     - RELATIVE HUMIDITY IN PERCENT
WIND   - DIRECTION AND SPEED IN MILES PER HOUR (MPH)
VRB    - VARIABLE WIND DIRECTION
PRES   - MEAN SEA LEVEL PRESSURE IN INCHES OF MERCURY
         F - FALLING PRESSURE   R - RISING PRESSURE
         S - STEADY PRESSURE
VSB    - VISIBILITY IN MILES
HX     - HEAT INDEX IN FAHRENHEIT
WCI    - WIND CHILL INDEX IN FAHRENHEIT
TC     - TEMPERATURE IN CELSIUS WHICH IS ALSO KNOWN AS
         TEMPERATURE IN CENTIGRADE
AFB    - AIR FORCE BASE
         LUKE AFB IS LUKE AIR FORCE BASE
         DAVIS-MONTHAN IS DAVIS-MONTHAN AIR FORCE BASE
NAS    - NAVAL AIR STATION
         EL CENTRO NAS IS EL CENTRO NAVAL AIR STATION
N/A    - NOT AVAILABLE



USA.gov is the U.S. government's official web portal to all federal, state and local government web resources and services.